Wind_Speed
2 3 4 4 4 5 5 4 4 4 3 3 3 4 4 4 4 4 4 4 3 3 3 3 3 3 2 2 1 1 1 1 1 1 2 2 3 4 4 5 6 6 7
2 3 4 5 6 6 7 6 6 5 5 4 4 4 5 5 5 5 5 4 4 4 3 3 3 3 3 2 1 1 0 0 1 1 2 2 3 3 4 5 5 6 7
3 4 5 6 7 8 8 8 8 7 7 5 5 5 5 6 6 6 6 5 5 5 4 4 4 3 3 2 2 1 1 1 1 2 2 2 2 2 4 5 5 6 7
4 4 5 7 7 8 9 9 9 8 7 6 6 6 6 6 6 6 6 6 6 5 5 4 4 3 3 3 2 1 1 1 1 2 2 2 2 2 4 5 5 6 6
5 5 5 7 8 9 10 10 10 9 8 7 7 6 6 6 7 7 7 6 6 6 5 5 4 4 3 3 2 2 2 2 2 2 2 2 2 3 4 4 5 6 6
6 6 6 7 8 10 10 11 11 10 9 8 7 7 6 7 7 7 7 6 6 5 5 5 5 4 4 4 3 3 3 2 2 2 2 2 2 3 4 4 5 5 5
7 6 6 8 9 10 11 11 11 11 10 10 8 7 7 7 7 7 7 6 6 6 5 5 5 4 4 4 4 3 3 2 2 2 3 2 2 3 4 4 4 4 4
7 6 6 8 9 10 11 12 12 12 12 11 9 8 7 7 7 7 7 6 6 6 5 5 5 5 4 4 4 4 3 2 2 3 3 3 3 4 4 4 4 5 4
8 6 6 7 9 10 12 12 13 12 12 11 10 9 9 8 8 7 6 6 6 5 5 5 5 4 4 4 4 4 3 3 3 3 3 3 3 4 4 4 5 5 4
8 7 6 8 10 11 12 13 13 13 12 12 11 10 10 9 8 7 7 6 6 6 6 6 5 4 4 3 3 3 3 3 4 4 4 3 4 4 5 5 5 5 5
8 8 8 8 10 11 13 14 14 14 13 12 12 11 10 9 8 8 7 6 6 6 6 5 5 4 3 3 3 3 3 3 3 4 4 4 4 4 5 6 5 5 6
8 7 8 9 10 11 12 14 15 14 13 13 12 11 11 10 9 8 7 6 6 5 5 5 4 4 3 3 3 3 2 3 3 3 4 4 4 5 5 6 6 6 6
7 8 8 10 11 11 12 13 14 14 13 13 12 12 10 10 9 8 7 6 5 5 4 4 4 3 3 2 2 2 2 3 3 3 4 5 5 5 5 6 6 6 7
8 7 8 9 10 11 12 13 14 14 14 14 12 12 11 10 9 8 6 5 4 4 4 4 3 3 2 2 2 2 2 3 3 3 3 4 4 5 5 6 6 6 7
8 8 8 8 10 11 12 14 14 14 14 13 12 12 11 10 9 8 6 5 4 4 3 3 3 2 2 1 1 2 2 2 2 3 4 4 4 5 5 6 6 6 7
8 9 9 10 11 11 12 13 15 15 14 14 13 12 11 11 10 8 6 5 4 4 3 2 2 1 1 1 1 1 1 1 2 2 3 4 4 5 5 6 7 6 6
9 9 9 9 10 9 11 12 14 15 15 15 14 12 12 11 10 9 7 5 5 4 3 2 1 1 1 1 1 1 1 2 2 2 3 3 3 4 5 6 6 7 7
9 7 6 8 8 9 10 11 12 14 14 15 14 13 12 11 10 9 8 7 6 5 3 3 2 2 2 2 2 1 1 1 2 2 2 2 3 3 4 5 6 6 6
7 6 4 6 6 7 9 10 11 13 14 15 14 13 12 11 10 9 9 8 7 6 5 4 3 2 2 2 2 2 2 2 2 2 2 3 3 3 3 4 4 5 5
7 4 3 5 5 7 9 10 12 13 14 15 15 14 13 12 10 10 10 9 8 7 6 5 4 4 3 3 3 4 3 3 3 3 2 3 3 3 3 3 4 4 4
5 2 3 4 5 7 9 10 12 13 15 16 16 16 14 12 11 11 11 10 9 8 7 6 5 4 4 4 4 4 4 4 3 3 3 2 3 3 2 3 3 3 3
4 1 4 4 5 7 8 10 12 13 16 17 17 16 15 13 12 12 12 11 9 9 8 7 6 5 5 4 4 4 3 3 3 3 2 2 2 2 1 2 3 2 3
3 1 2 2 4 7 9 10 11 11 12 15 17 16 15 14 13 13 13 12 10 10 9 8 7 6 5 4 4 3 3 3 3 2 2 2 1 1 0 0 1 2 2
3 2 0 2 4 6 9 10 11 12 13 14 15 16 15 14 14 13 13 12 11 10 10 9 8 7 5 5 4 4 3 3 2 2 2 1 1 1 1 1 1 2 2
3 2 1 2 4 6 8 10 11 12 14 14 14 14 14 14 14 14 13 13 12 11 10 10 9 8 7 6 6 5 5 5 4 3 3 3 3 3 3 3 3 3 4
3 2 1 2 4 6 8 10 11 12 13 14 14 14 14 15 14 14 14 14 13 12 12 11 10 9 9 8 7 7 7 7 6 5 5 5 5 5 4 5 6 6 6
Wind_Direction
268 229 216 210 209 212 214 219 223 238 241 256 278 289 296 302 306 310 314 318 325 325 325 324 325 327 329 330 337 346 31 80 95 120 119 119 120 118 114 115 113 111 108
285 242 226 216 214 220 223 227 232 238 238 248 266 281 291 296 300 305 308 312 315 315 315 315 317 321 321 318 322 333 346 76 127 142 135 129 121 118 116 118 117 114 111
294 253 238 227 223 223 226 229 231 234 236 241 256 273 285 292 296 300 304 305 307 309 308 308 312 317 315 313 318 316 296 265 194 166 145 137 134 122 122 123 122 120 117
292 267 247 234 225 225 226 228 229 231 232 238 252 266 277 288 291 295 297 299 302 305 305 304 307 309 308 306 303 292 281 261 217 190 173 157 161 148 133 130 127 124 123
295 277 257 238 229 224 225 226 223 223 228 236 248 260 273 283 286 287 289 292 296 300 300 300 302 303 299 294 290 285 282 277 234 223 203 183 181 174 150 144 135 133 130
306 287 267 246 234 226 222 222 221 222 227 234 244 257 272 281 281 282 283 288 293 296 295 296 296 295 292 285 282 280 282 283 245 225 199 187 192 193 174 161 150 144 136
309 290 265 249 237 226 221 222 224 227 230 233 240 253 267 272 276 280 280 283 288 292 291 292 292 290 287 283 283 285 277 272 250 218 198 191 191 186 182 170 159 157 150
310 293 266 251 238 229 227 227 227 226 230 232 238 249 257 263 270 274 276 280 285 286 288 291 291 288 283 283 284 283 279 260 234 208 203 206 202 201 193 177 171 172 169
308 294 273 255 242 237 231 227 227 226 229 231 234 241 248 254 263 266 268 275 279 279 284 288 288 283 282 281 277 272 266 258 235 217 212 211 209 205 197 183 182 180 180
301 287 273 259 240 237 235 229 228 227 227 230 232 237 243 250 257 258 264 272 276 278 282 283 284 278 279 276 273 265 259 248 233 230 218 212 216 218 207 197 193 193 190
301 285 273 258 242 237 235 229 226 225 226 228 231 234 241 246 250 254 262 267 274 278 281 282 280 276 274 271 269 262 258 248 238 228 218 214 218 220 212 203 202 203 197
300 280 269 258 241 238 230 226 224 222 223 224 230 236 243 245 245 251 256 264 272 275 276 277 276 277 269 260 263 266 260 239 238 226 219 223 225 221 214 208 207 208 207
291 276 264 257 238 233 226 220 219 219 219 223 228 233 239 242 243 249 254 260 265 266 267 270 275 279 265 253 256 259 243 239 243 236 219 220 225 221 214 209 207 211 215
289 273 270 252 234 230 223 217 216 215 218 223 227 228 232 240 242 241 243 250 253 255 261 267 270 272 268 248 248 242 232 238 235 229 222 219 220 219 215 213 212 214 218
289 271 262 253 238 231 225 216 213 213 217 219 219 221 228 233 229 228 231 234 236 233 246 257 262 263 270 246 245 246 238 215 205 204 208 212 214 216 215 214 213 216 219
297 280 263 250 240 232 221 210 207 208 211 213 212 216 221 222 223 222 222 223 223 210 214 233 247 249 263 233 220 229 204 190 184 189 199 205 213 216 217 217 218 221 222
300 287 263 243 231 223 204 200 201 203 209 209 209 210 209 214 217 214 211 214 207 200 195 199 203 198 181 161 168 184 158 175 177 176 188 196 204 212 215 216 219 222 225
307 290 259 232 220 204 196 194 199 201 205 205 206 202 202 206 208 208 210 205 198 195 186 179 174 158 145 150 152 135 127 156 179 168 173 178 188 195 201 206 214 220 227
320 301 245 211 200 202 203 199 199 205 203 201 201 200 201 202 207 206 199 196 195 193 184 175 163 142 135 139 134 123 119 121 140 143 152 158 162 166 177 191 203 214 223
324 302 221 205 194 187 195 201 203 199 199 199 199 201 200 201 204 201 193 195 193 189 179 168 156 139 126 126 126 121 120 123 122 125 140 149 153 157 171 185 199 211 221
335 290 202 195 185 184 192 199 198 197 195 196 199 199 199 200 199 196 193 193 190 185 180 171 162 150 138 132 133 130 128 126 124 122 122 130 135 137 161 184 200 212 217
341 315 197 187 189 189 190 195 194 195 197 198 197 197 197 196 198 197 195 195 193 189 186 181 175 166 160 157 149 140 142 136 127 125 126 131 140 144 155 173 191 191 201
7 55 161 183 187 192 194 193 192 190 194 195 194 195 197 198 199 198 198 199 197 195 192 189 188 184 182 180 174 164 162 157 144 136 133 136 152 160 162 169 200 199 200
39 43 24 198 184 187 195 192 192 194 193 193 195 197 198 199 199 200 202 202 200 200 199 199 200 200 200 203 203 203 199 194 186 174 170 163 183 234 270 285 265 250 258
20 18 347 205 190 196 197 192 193 194 196 196 196 200 201 200 201 203 205 206 205 204 206 208 210 213 217 221 225 224 222 222 221 217 221 226 233 240 252 263 274 276 276
357 349 340 200 197 198 198 197 194 194 197 201 201 202 204 204 205 208 210 212 213 213 217 220 222 226 230 235 239 237 237 239 239 239 244 249 252 255 258 261 266 269 272
Height
5882 5882 5883 5883 5884 5885 5886 5887 5888 5888 5889 5890 5890 5891 5891 5891 5890 5890 5890 5889 5888 5888 5887 5886 5886 5885 5885 5884 5884 5884 5883 5883 5883 5883 5883 5883 5882 5882 5882 5882 5882 5882 5882
5882 5882 5882 5883 5884 5885 5886 5887 5888 5888 5889 5890 5891 5891 5891 5891 5891 5890 5890 5889 5888 5888 5887 5886 5886 5885 5885 5884 5884 5884 5884 5884 5884 5883 5883 5883 5883 5883 5882 5883 5883 5883 5883
5881 5881 5881 5882 5883 5884 5885 5886 5887 5888 5889 5890 5891 5891 5891 5891 5891 5891 5890 5889 5888 5888 5887 5886 5886 5885 5885 5885 5884 5884 5884 5884 5884 5884 5884 5884 5884 5884 5883 5884 5884 5884 5884
5879 5879 5880 5880 5881 5883 5884 5885 5886 5887 5888 5889 5890 5891 5891 5891 5891 5890 5890 5889 5888 5888 5887 5886 5886 5885 5885 5885 5884 5884 5884 5884 5884 5884 5884 5884 5885 5884 5884 5884 5885 5885 5885
5877 5878 5878 5879 5880 5881 5882 5884 5885 5886 5887 5889 5890 5890 5891 5891 5890 5890 5889 5889 5888 5887 5887 5886 5886 5885 5885 5884 5884 5884 5884 5884 5884 5884 5884 5885 5885 5885 5885 5885 5886 5886 5886
5875 5876 5876 5877 5878 5880 5881 5882 5884 5885 5886 5888 5889 5889 5890 5890 5890 5890 5889 5889 5888 5887 5886 5886 5885 5885 5884 5884 5884 5884 5884 5884 5884 5884 5885 5885 5885 5886 5886 5886 5886 5887 5887
5873 5873 5874 5875 5876 5878 5879 5881 5883 5884 5885 5886 5888 5888 5889 5889 5889 5889 5889 5888 5887 5887 5886 5885 5885 5884 5884 5884 5884 5884 5884 5884 5884 5884 5885 5885 5885 5886 5886 5886 5887 5887 5888
5871 5871 5871 5873 5874 5876 5878 5879 5881 5882 5884 5885 5886 5887 5888 5888 5888 5888 5888 5887 5887 5886 5885 5885 5884 5884 5884 5884 5883 5883 5884 5884 5884 5884 5885 5885 5885 5885 5886 5886 5887 5888 5888
5869 5869 5870 5870 5872 5873 5875 5877 5879 5881 5882 5884 5885 5886 5887 5887 5887 5887 5887 5886 5886 5885 5885 5884 5883 5883 5883 5883 5883 5883 5883 5883 5883 5884 5884 5884 5885 5885 5886 5886 5887 5888 5888
5867 5867 5867 5868 5869 5871 5873 5875 5877 5879 5881 5882 5883 5884 5885 5886 5886 5886 5886 5886 5885 5884 5884 5883 5883 5883 5883 5883 5883 5883 5883 5883 5883 5883 5884 5884 5884 5885 5885 5886 5887 5887 5888
5865 5864 5865 5866 5867 5868 5870 5872 5874 5877 5879 5881 5882 5883 5884 5884 5885 5885 5885 5885 5884 5883 5883 5882 5882 5882 5882 5882 5882 5882 5882 5882 5883 5883 5883 5884 5884 5884 5885 5886 5886 5887 5888
5862 5861 5862 5863 5864 5866 5867 5870 5872 5874 5877 5879 5880 5881 5882 5883 5884 5884 5884 5884 5883 5883 5882 5881 5881 5881 5882 5882 5882 5882 5882 5882 5882 5883 5883 5883 5884 5884 5884 5885 5885 5886 5887
5859 5859 5859 5860 5862 5864 5865 5867 5870 5872 5875 5877 5878 5880 5881 5881 5882 5883 5883 5883 5883 5882 5881 5881 5881 5881 5881 5881 5881 5881 5881 5881 5881 5882 5882 5883 5883 5883 5884 5884 5885 5885 5886
5856 5856 5857 5858 5859 5861 5863 5865 5867 5870 5872 5874 5876 5877 5879 5880 5881 5881 5882 5882 5882 5881 5881 5881 5880 5880 5880 5880 5880 5880 5881 5881 5881 5881 5881 5882 5882 5882 5883 5883 5884 5884 5885
5853 5853 5853 5854 5856 5858 5860 5862 5864 5867 5870 5872 5874 5875 5877 5878 5879 5880 5881 5881 5881 5881 5881 5880 5880 5880 5880 5879 5879 5879 5880 5880 5880 5880 5880 5881 5881 5881 5882 5882 5883 5883 5884
5850 5850 5850 5852 5853 5855 5857 5859 5861 5864 5867 5870 5872 5873 5875 5876 5878 5879 5880 5880 5880 5880 5880 5880 5880 5880 5879 5879 5879 5879 5879 5879 5879 5879 5879 5879 5880 5880 5881 5881 5882 5882 5883
5848 5848 5848 5848 5851 5852 5854 5857 5859 5862 5865 5867 5869 5871 5873 5875 5877 5878 5879 5879 5880 5880 5880 5880 5880 5879 5879 5879 5879 5879 5879 5879 5879 5879 5879 5878 5878 5879 5879 5880 5880 5881 5882
5845 5844 5845 5847 5849 5851 5853 5855 5857 5860 5863 5865 5867 5869 5872 5874 5875 5877 5878 5879 5879 5879 5880 5880 5880 5879 5879 5879 5879 5878 5878 5878 5878 5878 5878 5878 5878 5878 5878 5878 5879 5880 5880
5843 5842 5843 5844 5846 5849 5851 5853 5856 5858 5861 5863 5866 5868 5870 5872 5874 5875 5877 5878 5878 5879 5879 5879 5879 5880 5879 5879 5879 5879 5878 5878 5878 5878 5878 5878 5878 5878 5878 5878 5878 5879 5879
5842 5842 5841 5843 5845 5847 5849 5852 5854 5856 5859 5861 5864 5866 5868 5870 5872 5874 5875 5877 5877 5878 5879 5879 5880 5880 5880 5880 5879 5879 5879 5879 5879 5878 5878 5878 5878 5878 5877 5877 5878 5878 5878
5842 5841 5841 5842 5844 5846 5848 5850 5852 5855 5857 5860 5862 5864 5867 5868 5870 5872 5874 5876 5877 5878 5878 5879 5880 5880 5880 5880 5880 5880 5880 5879 5879 5879 5878 5878 5878 5877 5877 5877 5877 5877 5877
5841 5840 5840 5842 5843 5845 5847 5848 5851 5853 5855 5857 5860 5862 5865 5867 5869 5871 5873 5874 5876 5877 5878 5879 5879 5880 5880 5880 5880 5880 5880 5881 5880 5879 5879 5878 5878 5878 5877 5877 5877 5876 5876
5841 5842 5842 5842 5842 5844 5846 5848 5850 5851 5853 5855 5858 5861 5863 5865 5867 5869 5871 5873 5875 5876 5877 5878 5879 5879 5880 5880 5880 5881 5881 5880 5880 5880 5879 5879 5878 5878 5877 5877 5876 5876 5876
5842 5842 5842 5842 5843 5844 5845 5847 5849 5850 5852 5854 5857 5859 5861 5863 5866 5868 5870 5872 5873 5875 5876 5877 5878 5879 5879 5880 5880 5880 5880 5880 5880 5880 5879 5879 5878 5878 5877 5877 5876 5876 5875
5842 5842 5842 5842 5843 5844 5845 5846 5848 5849 5851 5853 5855 5857 5859 5862 5864 5866 5868 5870 5872 5873 5874 5875 5876 5877 5878 5878 5879 5879 5879 5879 5879 5879 5879 5878 5878 5877 5876 5876 5875 5875 5874
5841 5841 5841 5842 5842 5843 5844 5845 5846 5848 5850 5852 5853 5856 5858 5860 5863 5865 5867 5868 5870 5871 5873 5874 5875 5875 5876 5876 5877 5877 5877 5878 5878 5878 5877 5877 5876 5876 5875 5875 5874 5874 5873